Location: Ch?enovice
(49.7164°N, 15.2160°E)
Time: 21:15:38
(UTC+00:00)

NPP - Pass Details

Date: 23 May 2024
Orbit: 826 x 827 km, 98.7° (Epoch: 21 June)

Event Time Altitude Azimuth Distance (km) Brightness Sun altitude
Rises 00:56:53 0° 14° (NNE) 3,381 8.4 -14.7°
Reaches altitude 10° 00:59:15 10° 15° (NNE) 2,443 7.4 -14.5°
Maximum altitude 01:04:41 89° 102° (ESE) 835 3.7 -14.1°
Enters shadow 01:08:41 19° 196° (SSW) 1,891 4.9 -13.7°
